Location: Équennes
(49.7375°N, 1.9622°E)
Time: 19:09:58
(UTC+00:00)

Cosmos 2278 - Pass Details

Date: 28 September 2023
Orbit: 838 x 853 km, 71.1° (Epoch: 08 December)

Event Time Altitude Azimuth Distance (km) Brightness Sun altitude
Rises 23:15:59 0° 332° (NNW) 3,426 7.6 -42.1°
Reaches altitude 10° 23:19:45 10° 357° (N) 2,490 6.8 -42.2°
Maximum altitude 23:22:44 14° 29° (NNE) 2,198 6.3 -42.3°
Enters shadow 23:22:47 14° 29° (NNE) 2,198 6.3 -42.3°
